Regional Weather Roundup
Issued by NWS Portland, ME

Home | Current Version | Previous Version | Text Only | Print | Product List | Glossary On
Versions: 1 2 3 4 5 6 7 8 9 10 11 12 13 14 15 16 17 18 19 20 21 22 23 24 25 26 27 28 29 30 31 32 33 34 35 36 37 38 39 40 41 42 43 44 45 46 47 48 49 50
000
ASUS41 KGYX 220310
RWRGYX
WEATHER ROUNDUP FOR MAINE AND NEW HAMPSHIRE
NATIONAL WEATHER SERVICE GRAY ME
1100 PM EDT MON AUG 21 2017

MEZ002-005-006-010-012-015-018-020-021-024-026-027-029-220400-
MAINE

CITY           SKY/WX    TMP DP  RH WIND       PRES   REMARKS
PORTLAND       CLEAR     72  63  73 SW7       30.02F
SANFORD        CLEAR     63  62  97 SE3       30.04F
WISCASSET      CLEAR     64  61  90 CALM      30.03F
ROCKLAND       CLEAR     65  62  90 SW5       30.01F
FRYEBURG       CLEAR     64  63  96 W3        30.03S
LEWISTONAUBURN CLEAR     70  64  81 S6        30.02S
AUGUSTA        CLEAR     68  64  87 S5        30.01F
WATERVILLE     CLEAR     67  65  93 S3        29.99S
BANGOR         CLEAR     70  63  78 SW5       30.00S
GREENVILLE       N/A     65  58  78 CALM      30.00F
MILLINOCKET    CLEAR     68  59  73 NW3       29.98S
HOULTON        MOCLDY    68  60  75 SW6       29.94F
PRESQUE ISLE   CLOUDY    70  60  70 VRB3      29.94S
FRENCHVILLE    CLOUDY    69  59  70 W7        29.92S
CARIBOU        CLOUDY    69  60  73 SW6       29.92S
$$

NHZ002-005-008-009-011-012-014-220400-
NEW HAMPSHIRE

CITY           SKY/WX    TMP DP  RH WIND       PRES   REMARKS
PORTSMOUTH     CLEAR     71  64  76 SW6       30.03S
ROCHESTER      CLEAR     70  61  73 CALM      30.04F
NASHUA         CLEAR     70  66  87 CALM      30.06F
MANCHESTER     CLEAR     71  64  78 S5        30.04F
CONCORD        CLEAR     64  61  90 CALM      30.05F
LACONIA        CLEAR     71  60  68 W6        30.05F
PLYMOUTH       FAIR      61  59  94 CALM      30.06R FOG
BERLIN         CLOUDY    60  56  86 CALM      30.06R
WHITEFIELD     CLEAR     62  58  86 CALM      30.05F
JAFFREY        CLEAR     68  65  90 SW6       30.10F
KEENE            N/A    N/A N/A N/A MISG        N/A
LEBANON        CLEAR     64  62  93 CALM      30.05S
MT WASHINGTON  FOG       52  52 100 W33         N/A  VSB 1/16
$$

VTZ005-007-008-220400-
VERMONT

CITY           SKY/WX    TMP DP  RH WIND       PRES   REMARKS
ST JOHNSBURY     N/A     65  64  97 MISG      30.03S
MONTPELIER     CLEAR     64  61  90 CALM      30.09S
BURLINGTON     MOCLDY    74  65  73 S6        30.02R
$$

MAZ007-012-024-CTZ003-RIZ002-NYZ038-NYZ072-220400-
SOUTHERN NEW ENGLAND AND NY

CITY           SKY/WX    TMP DP  RH WIND       PRES   REMARKS
BOSTON         CLEAR     76  63  64 SW15      30.06F
WORCESTER      CLEAR     68  62  81 SW10      30.11F
NANTUCKET      CLEAR     68  67  96 W9        30.12S
PROVIDENCE     PTCLDY    74  64  71 W8        30.09F
HARTFORD       CLEAR     74  65  73 S8        30.09S
ALBANY         MOCLDY    76  67  73 S7        30.05S
NEW YORK CITY  MOCLDY    80  71  74 SW12      30.09F
$$

ANZ081-ANZ082-ANZ150-NHZ014-MEZ023>029-220400-
COASTAL MARINE OBSERVATIONS

STATION/POSITION TIME  TEMP    WIND        PRES    WAVE
                       AIR SEA DIR/SP/G            HT/PER
                 (UTC) (F)     (DEG/KT/KT) (MB)    (FT/S)
MOUNT DESERT ROC 0300   61                 1016.4F
MATINICUS ROCK   0200   65     220/ 19/ 19 1016.3F
ISLE OF SHOALS   0200   76     220/ 12/ 12 1017.0F
JEFFREYS LEDGE   0206      66                N/A     1/ 6
CASHES LEDGE BUO 0250   70 69              1016.8F   2/ 3
GEORGES BANK BUO 0150   67 65              1019.4    2/ 6
$$

.............KEY..............
   WCI - WIND CHILL
   TC  - TEMPERATURE IN CELSIUS
   VSB - VISIBILITY IN MILES
   HX  - HEAT INDEX
   FAIR- INDICATES FEW OR NO CLOUDS BELOW 12,000 FT, WITH NO
         SIGNIFICANT WEATHER AND/OR OBSTRUCTIONS TO VISIBILITY.





USA.gov is the U.S. government's official web portal to all federal, state and local government web resources and services.